User: anonymous   Login
Location: Archemont
(49.1579°N, 1.7598°E)
Time: 21:11:20
(UTC+00:00)
Language:

FENGYUN 1C DEB - Orbit

View from above orbital plane
View from above orbital plane
View from above satellite
View from above satellite

Ground track
Ground track

The orbit data is extracted from the following two-line orbital elements,

1 30521U 99025AJK 24057.16563999  .00003453  00000-0  76542-3 0  9994
2 30521  98.9617 139.1542 0152918  67.8770 293.8576 14.50829040901293
Epoch (UTC): 26 February 2024 03:58:31
Eccentricity: 0.0152918
inclination: 98.9617°
perigee height: 614 km
apogee height: 831 km
right ascension of ascending node: 139.1542°
argument of perigee: 67.8770°
revolutions per day: 14.50829040
mean anomaly at epoch: 293.8576°
orbit number at epoch: 90129

The dashed part of the orbit path shows where the satellite is in the earth's shadow,  

DLR